Погода в Буденновске

Погода в Буденновске : погода сейчас, прогноз погоды и архив. Всё, что Вы хотите узнать о погоде в Буденновске!

Хотите узнать прогноз погоды в Буденновске? Тогда Вам сюда: Погода в Буденновске

Поиск расширенной информации на нашем сайте:

Другие новости

Новости СМИ2

Главная страница сайта

Новости сайта

03.07.2017

Напоминаем, что на нашем специализированном сайте Метеоцентр.Азия вы можете получить высокодетализированные автоматические прогнозы погоды по пунктам России, СНГ и мира в авиационном формате (включающие направление и скорость ветра, видимость, явления погоды, количество и форму облачности, нижнюю и верхнюю границу облачности).


Погода в Буденновске - сегодня

Время (UTC), дата Ветер
(°,м/с) 
Видим.   Явления Облачность Т
(°С)
Тd
(°С)
f(%) Тe
(°С)
Pmin
(гПа)
dP
(гПа)
Po
(мм)
O2
(г/м3)
Тmin Tmax R s Состояние
почвы
12 12.10.18 040 (СВ) 10 км    ясно 
+18.2 -4.1 22 +19  1029.3  0.6  760  288           
15 12.10.18 040 (СВ) 10 км    1/0 верхняя 
[Ci fib]
+13.7 -2.7 32 +14  1030.7  1.1  761  292    +18.3       
18 12.10.18 050 (СВ) 20000 м    ясно 
+9.5 -3.1 41 +9  1032.2  1.2  762  297           
21 12.10.18 070 (В) 20000 м    6/0 средняя 
[Ac trans]
+7.7 -2.1 50 +8  1032.6  0.3  762  299           
00 13.10.18 тихо ()   20000 м    ясно 
+5.2 -2.1 59 +5  1032.3  -0.4  762  301           
03 13.10.18 тихо ()   10 км    ясно 
+1.6 -3.2 70 +2  1032.2  -0.3  761  305  +1.6        сухая 
06 13.10.18 120 (ЮВ) 10 км    ясно 
+11.1 -3.7 35 +12  1032.3  0.6  762  295           
09 13.10.18 060 (СВ) 10 км    ясно 
+15.4 -3.3 27 +16  1030.7  -1.3  761  291           
12 13.10.18 090 (В) 10 км    ясно 
+17.2 -8.9 16 +18  1029.3  -1.3  760  289           
15 13.10.18 070 (В) 10 км    ясно 
+12.9 -7.3 24 +14  1029  -0.5  759  293    +17.2       
18 13.10.18 030 (СВ) 20000 м    ясно 
+8 -3.8 43 +9  1029.3  759  298           
21 13.10.18 тихо ()   20000 м    ясно 
+4.5 -5.4 49 +5  1028.5  -0.9  759  301           
00 14.10.18 340 (С) 20000 м    ясно 
+3.3 -6.9 47 +3  1028  -0.9  758  303           
03 14.10.18 тихо ()   10 км    3/0 верхняя 
[Ci fib]
-0.6 -7.6 59 -1  1027.8  -0.5  758  307  -0.7        сухая 
06 14.10.18 350 (С) 10 км    ясно 
+9.4 -6.3 32 +10  1027.7  0.5  758  296  -1.7         
09 14.10.18 270 (З) 10 км    6/0 верхняя 
[Ci fib]
+18.1 -7.4 17 +19  1025.6  -1.6  757  287           
12 14.10.18 350 (С) 10 км    8/0 верхняя 
[Ci]
+21.1 -6.8 15 +21  1023.5  -1.9  756  283           
15 14.10.18 010 (С) 10 км    4/0 средняя, верхняя 
[Ac lent|Ci fib]
+15.3 -2.8 29 +17  1023.6  -0.2  756  289    +21.2       
18 14.10.18 тихо ()   20000 м    ясно 
+10.2 -2 42 +10  1025.1  1.2  756  294           
21 14.10.18 тихо ()   20000 м    ясно 
+8 -1.2 52 +8  1025.4  0.1  757  296           
00 15.10.18 тихо ()   20000 м    ясно 
+5.2 -3.2 55 +5  1025.4  -0.2  756  299           
03 15.10.18 тихо ()   10 км    3/0 верхняя 
[Ci fib]
+2.6 -3.8 63 +3  1026.4  0.8  757  303  +2.5        сухая 
06 15.10.18 тихо ()   10 км    9/0 средняя, верхняя 
[Ac trans|Ci fib]
+11.5 +0.9 48 +12  1026.2  0.8  757  293           
09 15.10.18 040 (СВ) 10 км    9/3 600 м средняя, верхняя 
[Sc|Ac trans|Ci fib]
+18.5 +3.2 36 +20  1025.8  0.1  757  285           
12 15.10.18 060 (СВ) 10 км    8/3 600 м средняя, верхняя 
[Cu hum|Ac trans|Ci fib]
+20.8 +3.6 32 +21  1024.5  -1.1  757  283           
Время (UTC), дата Ветер
(°,м/с) 
Видим.   Явления Облачность Т
(°С)
Тd
(°С)
f(%) Тe
(°С)
Pmin
(гПа)
dP
(гПа)
Po
(мм)
O2
(г/м3)
Тmin Tmax R s Состояние
почвы

Для получения пояснительной информации подведите курсор к названию столбца.

ПОГОДА в Буденновске - архив

Всё, что Вы хотите узнать о погоде в Буденновске - удобно и подробно!

Выберите нужную дату (начиная с 1 января 2015* года) и нажмите кнопку "Найти".
Будут отображены архивные сводки погоды по пункту Буденновск, начиная с указанной даты.


Отображать данные в формате CSV (для использования в таблицах Excel)


Внимание! Наш архив погоды предназначен исключительно для личного некоммерческого использования в познавательных целях. Если Вам необходимы официальные справки о состоянии погоды (для производственных, юридических, коммерческих и т.п. целей), обращайтесь в органы Росгидромета.

*Примечание: данная дата относится к архиву по метеостанциям СССР (Россия, СНГ, Балтия).
Архив по метеостанциям Зарубежной Европы и Азии (кроме Китая) хранится 10 дней, по другим регионам земного шара (Китай, Африка, Америка, Австралия, Океания) - 1 день.

Буденновск - район местоположения метеостанции


Название, широта, долгота, высота метеостанции:
Буденновск (Прикумск) 44.8°ш. 44.1°д. 136 м над ур. моря [Российская Федерация]

Дополнительная информация

В oтличие oт бoльшинства пoгoдных сайтoв мы публикуем пoдрoбную метеoинфoрмацию в детальнoм прoфессиoнальнoм фoрмате.

Характеристики температуры и влажнoсти вoздуха измеряются на высoте 2 м в тени вдали oт зданий и деревьев.
Скoрoсть ветра измеряется на высoте 10 м (на урoвне рoста челoвека скoрoсть ветра ниже в 1.5-2 раза). Если метеoстанция нахoдится в гoрoде или в лесу, тo скoрoсть ветра занижена на 2-4 м/с пo сравнению с oткрытым местoм. Скoрoсть ветра над акватoриями крупных рек и oзёр, а также на вершинах хoлмoв на 2-5 м/с выше, чем в oбычных услoвиях.
Атмoсфернoе давление в разных тoчках местнoсти мoжет значительнo oтличаться oт давления на метеoстанции, в зависимoсти oт услoвий рельефа (при пoдъёме на 10 м давление пoнижается примернo на 1 мм рт.ст.).